| time (UTC) | temp F | wind direction | speed MPH | gust MPH | rain 1hr in | rain 24hr in | rain mn in | humidity % | barometer mb |
| 20260901161406 | 63 | 69 | 1.0 | 1.0 | 0.00 | 0.00 | 0.00 | 72 | 1023.1 |
| 20260901160902 | 63 | 124 | 0.0 | 0.0 | 0.00 | 0.00 | 0.00 | 73 | 1023.1 |
| 20260901160358 | 63 | 132 | 0.0 | 0.0 | 0.00 | 0.00 | 0.00 | 72 | 1023.0 |
| 20260901155857 | 63 | 125 | 0.0 | 0.0 | 0.00 | 0.00 | 0.00 | 72 | 1023.3 |
| 20260901155353 | 63 | 133 | 0.0 | 0.0 | 0.00 | 0.00 | 0.00 | 71 | 1022.8 |
| 20260901154849 | 63 | 121 | 0.0 | 0.0 | 0.00 | 0.00 | 0.00 | 71 | 1022.9 |
| 20260901154348 | 63 | 119 | 0.0 | 0.0 | 0.00 | 0.00 | 0.00 | 71 | 1023.0 |
| 20260901153843 | 63 | 117 | 0.0 | 0.0 | 0.00 | 0.00 | 0.00 | 71 | 1022.8 |
| 20260901153338 | 62 | 127 | 0.0 | 0.0 | 0.00 | 0.00 | 0.00 | 73 | 1022.8 |
| 20260901152837 | 62 | 123 | 0.0 | 0.0 | 0.00 | 0.00 | 0.00 | 73 | 1022.8 |
| 20260901152336 | 62 | 128 | 0.0 | 0.0 | 0.00 | 0.00 | 0.00 | 73 | 1022.6 |
| 20260901151831 | 62 | 127 | 0.0 | 0.0 | 0.00 | 0.00 | 0.00 | 74 | 1022.6 |
| 20260901151326 | 62 | 127 | 0.0 | 0.0 | 0.00 | 0.00 | 0.00 | 74 | 1022.8 |
| 20260901150825 | 62 | 128 | 0.0 | 0.0 | 0.00 | 0.00 | 0.00 | 76 | 1022.7 |
| 20260901150323 | 61 | 128 | 0.0 | 0.0 | 0.00 | 0.00 | 0.00 | 76 | 1022.6 |
| 20260901145822 | 61 | 128 | 0.0 | 0.0 | 0.00 | 0.00 | 0.00 | 77 | 1022.6 |
| 20260901145321 | 61 | 121 | 0.0 | 1.0 | 0.00 | 0.00 | 0.00 | 77 | 1022.5 |
| 20260901144816 | 61 | 128 | 0.0 | 0.0 | 0.00 | 0.00 | 0.00 | 77 | 1022.6 |
| 20260901144312 | 60 | 128 | 0.0 | 1.0 | 0.00 | 0.00 | 0.00 | 77 | 1022.4 |
| 20260901143808 | 60 | 128 | 0.0 | 0.0 | 0.00 | 0.00 | 0.00 | 77 | 1022.4 |
| 20260901143304 | 60 | 128 | 0.0 | 0.0 | 0.00 | 0.00 | 0.00 | 77 | 1022.5 |
| 20260901142800 | 60 | 150 | 1.0 | 1.0 | 0.00 | 0.00 | 0.00 | 77 | 1022.3 |
| 20260901142258 | 60 | 149 | 0.0 | 1.0 | 0.00 | 0.00 | 0.00 | 77 | 1022.2 |
| 20260901141754 | 60 | 159 | 0.0 | 0.0 | 0.00 | 0.00 | 0.00 | 76 | 1021.9 |
| 20260901141249 | 60 | 220 | 1.0 | 2.0 | 0.00 | 0.00 | 0.00 | 76 | 1021.9 |
| 20260901140748 | 60 | 135 | 0.0 | 0.0 | 0.00 | 0.00 | 0.00 | 76 | 1022.0 |
| 20260901140246 | 60 | 134 | 0.0 | 1.0 | 0.00 | 0.00 | 0.00 | 76 | 1021.9 |
| 20260901135741 | 60 | 130 | 0.0 | 0.0 | 0.00 | 0.00 | 0.00 | 76 | 1022.0 |
| 20260901135236 | 60 | 132 | 0.0 | 0.0 | 0.00 | 0.00 | 0.00 | 76 | 1021.9 |
| 20260901134731 | 60 | 132 | 0.0 | 0.0 | 0.00 | 0.00 | 0.00 | 77 | 1021.8 |
| 20260901134226 | 60 | 133 | 0.0 | 0.0 | 0.00 | 0.00 | 0.00 | 76 | 1021.8 |
| 20260901133725 | 60 | 132 | 0.0 | 0.0 | 0.00 | 0.00 | 0.00 | 76 | 1022.0 |
| 20260901133225 | 60 | 132 | 0.0 | 0.0 | 0.00 | 0.00 | 0.00 | 76 | 1021.5 |
| 20260901132723 | 60 | 132 | 0.0 | 0.0 | 0.00 | 0.00 | 0.00 | 76 | 1021.6 |
| 20260901132218 | 60 | 132 | 0.0 | 0.0 | 0.00 | 0.00 | 0.00 | 76 | 1021.4 |
| 20260901131713 | 60 | 131 | 0.0 | 0.0 | 0.00 | 0.00 | 0.00 | 77 | 1021.4 |
| 20260901131207 | 60 | 131 | 0.0 | 0.0 | 0.00 | 0.00 | 0.00 | 77 | 1021.9 |
| 20260901130702 | 60 | 131 | 0.0 | 0.0 | 0.00 | 0.00 | 0.00 | 77 | 1021.5 |
| 20260901130200 | 60 | 130 | 0.0 | 0.0 | 0.00 | 0.00 | 0.00 | 77 | 1021.5 |
| 20260901125658 | 60 | 130 | 0.0 | 0.0 | 0.00 | 0.00 | 0.00 | 77 | 1021.4 |
| 20260901125153 | 60 | 130 | 0.0 | 0.0 | 0.00 | 0.00 | 0.00 | 76 | 1021.2 |
| 20260901124648 | 60 | 131 | 0.0 | 0.0 | 0.00 | 0.00 | 0.00 | 76 | 1021.2 |
| 20260901124143 | 60 | 131 | 0.0 | 0.0 | 0.00 | 0.00 | 0.00 | 76 | 1021.0 |
| 20260901123637 | 60 | 140 | 0.0 | 0.0 | 0.00 | 0.00 | 0.00 | 77 | 1021.2 |
| 20260901123132 | 60 | 140 | 0.0 | 0.0 | 0.00 | 0.00 | 0.00 | 77 | 1020.9 |
| 20260901122630 | 60 | 168 | 1.0 | 2.0 | 0.00 | 0.00 | 0.00 | 77 | 1021.0 |
| 20260901122125 | 60 | 137 | 0.0 | 0.0 | 0.00 | 0.00 | 0.00 | 77 | 1021.1 |
| 20260901121619 | 60 | 137 | 0.0 | 0.0 | 0.00 | 0.00 | 0.00 | 77 | 1020.9 |
| 20260901121115 | 60 | 137 | 0.0 | 0.0 | 0.00 | 0.00 | 0.00 | 78 | 1021.0 |
| 20260901120609 | 60 | 137 | 0.0 | 0.0 | 0.00 | 0.00 | 0.00 | 78 | 1021.0 |
| 20260901120104 | 60 | 137 | 0.0 | 0.0 | 0.00 | 0.00 | 0.00 | 78 | 1021.0 |
| 20260901115559 | 59 | 137 | 0.0 | 0.0 | 0.00 | 0.00 | 0.00 | 79 | 1021.3 |
| 20260901115056 | 59 | 137 | 0.0 | 0.0 | 0.00 | 0.00 | 0.00 | 79 | 1021.1 |
| 20260901114552 | 60 | 137 | 0.0 | 0.0 | 0.00 | 0.00 | 0.00 | 78 | 1021.1 |
| 20260901114051 | 60 | 137 | 0.0 | 0.0 | 0.00 | 0.00 | 0.00 | 79 | 1021.1 |
| 20260901113549 | 60 | 137 | 0.0 | 0.0 | 0.00 | 0.00 | 0.00 | 79 | 1021.0 |
| 20260901113045 | 60 | 137 | 0.0 | 0.0 | 0.00 | 0.00 | 0.00 | 79 | 1021.3 |
| 20260901112539 | 60 | 137 | 0.0 | 0.0 | 0.00 | 0.00 | 0.00 | 79 | 1021.3 |
| 20260901112034 | 60 | 137 | 0.0 | 0.0 | 0.00 | 0.00 | 0.00 | 79 | 1021.3 |
| 20260901111533 | 60 | 137 | 0.0 | 0.0 | 0.00 | 0.00 | 0.00 | 78 | 1021.4 |
| 20260901111031 | 60 | 137 | 0.0 | 0.0 | 0.00 | 0.00 | 0.00 | 78 | 1021.5 |
| 20260901110528 | 60 | 137 | 0.0 | 0.0 | 0.00 | 0.00 | 0.00 | 78 | 1021.2 |
| 20260901110023 | 60 | 137 | 0.0 | 0.0 | 0.00 | 0.00 | 0.00 | 78 | 1021.3 |
| 20260901105519 | 60 | 137 | 0.0 | 0.0 | 0.00 | 0.00 | 0.00 | 78 | 1021.4 |
| 20260901105013 | 60 | 138 | 0.0 | 0.0 | 0.00 | 0.00 | 0.00 | 78 | 1021.4 |
| 20260901104509 | 60 | 137 | 0.0 | 0.0 | 0.00 | 0.00 | 0.00 | 78 | 1021.4 |
| 20260901104003 | 60 | 137 | 0.0 | 0.0 | 0.00 | 0.00 | 0.00 | 78 | 1021.4 |
| 20260901103458 | 60 | 134 | 0.0 | 0.0 | 0.00 | 0.00 | 0.00 | 78 | 1021.4 |
| 20260901102954 | 60 | 134 | 0.0 | 0.0 | 0.00 | 0.00 | 0.00 | 78 | 1021.2 |
| 20260901102448 | 60 | 136 | 0.0 | 0.0 | 0.00 | 0.00 | 0.00 | 78 | 1021.4 |
| 20260901101942 | 60 | 136 | 0.0 | 0.0 | 0.00 | 0.00 | 0.00 | 78 | 1021.2 |
| 20260901101437 | 60 | 131 | 0.0 | 0.0 | 0.00 | 0.00 | 0.00 | 78 | 1021.1 |
| 20260901100932 | 60 | 128 | 0.0 | 0.0 | 0.00 | 0.00 | 0.00 | 78 | 1021.1 |
| 20260901100426 | 60 | 124 | 0.0 | 0.0 | 0.00 | 0.00 | 0.00 | 79 | 1021.0 |
| 20260901095920 | 60 | 124 | 0.0 | 0.0 | 0.00 | 0.00 | 0.00 | 78 | 1021.2 |
| 20260901095419 | 60 | 126 | 0.0 | 0.0 | 0.00 | 0.00 | 0.00 | 79 | 1021.1 |
| 20260901094912 | 60 | 126 | 0.0 | 0.0 | 0.00 | 0.00 | 0.00 | 79 | 1021.2 |
| 20260901094407 | 60 | 126 | 0.0 | 0.0 | 0.00 | 0.00 | 0.00 | 79 | 1021.1 |
| 20260901093906 | 60 | 113 | 0.0 | 0.0 | 0.00 | 0.00 | 0.00 | 79 | 1021.1 |
| 20260901093406 | 60 | 113 | 0.0 | 0.0 | 0.00 | 0.00 | 0.00 | 79 | 1021.1 |
| 20260901092902 | 60 | 113 | 0.0 | 0.0 | 0.00 | 0.00 | 0.00 | 79 | 1021.2 |
| 20260901092357 | 60 | 113 | 0.0 | 0.0 | 0.00 | 0.00 | 0.00 | 79 | 1021.0 |
| 20260901091853 | 60 | 165 | 1.0 | 1.0 | 0.00 | 0.00 | 0.00 | 80 | 1021.2 |
| 20260901091353 | 59 | 134 | 0.0 | 0.0 | 0.00 | 0.00 | 0.00 | 80 | 1021.4 |
| 20260901090848 | 60 | 125 | 0.0 | 0.0 | 0.00 | 0.00 | 0.00 | 81 | 1021.2 |
| 20260901090342 | 60 | 124 | 0.0 | 0.0 | 0.00 | 0.00 | 0.00 | 82 | 1021.1 |
| 20260901085838 | 60 | 124 | 0.0 | 0.0 | 0.00 | 0.00 | 0.00 | 82 | 1021.2 |
| 20260901085333 | 60 | 131 | 0.0 | 0.0 | 0.00 | 0.00 | 0.00 | 82 | 1021.1 |
| 20260901084830 | 60 | 136 | 0.0 | 0.0 | 0.00 | 0.00 | 0.00 | 82 | 1021.1 |
| 20260901084325 | 60 | 131 | 0.0 | 0.0 | 0.00 | 0.00 | 0.00 | 81 | 1021.2 |
| 20260901083820 | 60 | 122 | 0.0 | 0.0 | 0.00 | 0.00 | 0.00 | 81 | 1021.2 |
| 20260901083315 | 60 | 100 | 0.0 | 0.0 | 0.00 | 0.00 | 0.00 | 80 | 1021.2 |
| 20260901082813 | 60 | 198 | 1.0 | 2.0 | 0.00 | 0.00 | 0.00 | 80 | 1021.3 |
| 20260901082309 | 60 | 130 | 0.0 | 0.0 | 0.00 | 0.00 | 0.00 | 80 | 1021.0 |
| 20260901081803 | 60 | 126 | 0.0 | 0.0 | 0.00 | 0.00 | 0.00 | 80 | 1021.2 |
| 20260901081258 | 59 | 182 | 2.0 | 2.0 | 0.00 | 0.00 | 0.00 | 82 | 1021.1 |
| 20260901080753 | 60 | 135 | 0.0 | 0.0 | 0.00 | 0.00 | 0.00 | 84 | 1021.2 |
| 20260901080252 | 60 | 98 | 0.0 | 0.0 | 0.00 | 0.00 | 0.00 | 85 | 1021.1 |
| 20260901075747 | 60 | 165 | 1.0 | 1.0 | 0.00 | 0.00 | 0.00 | 84 | 1021.1 |
| 20260901075241 | 60 | 136 | 0.0 | 0.0 | 0.00 | 0.00 | 0.00 | 83 | 1021.2 |
| 20260901074736 | 60 | 121 | 0.0 | 0.0 | 0.00 | 0.00 | 0.00 | 82 | 1021.4 |
| 20260901074231 | 60 | 121 | 0.0 | 0.0 | 0.00 | 0.00 | 0.00 | 82 | 1021.1 |
| 20260901073727 | 60 | 145 | 0.0 | 0.0 | 0.00 | 0.00 | 0.00 | 83 | 1021.3 |
| 20260901073223 | 60 | 146 | 0.0 | 0.0 | 0.00 | 0.00 | 0.00 | 82 | 1021.3 |
| 20260901072718 | 60 | 137 | 0.0 | 0.0 | 0.00 | 0.00 | 0.00 | 82 | 1021.2 |
| 20260901072213 | 60 | 135 | 0.0 | 0.0 | 0.00 | 0.00 | 0.00 | 81 | 1021.2 |
| 20260901071712 | 60 | 123 | 0.0 | 0.0 | 0.00 | 0.00 | 0.00 | 81 | 1021.2 |
| 20260901071207 | 60 | 120 | 0.0 | 0.0 | 0.00 | 0.00 | 0.00 | 81 | 1021.2 |
| 20260901070701 | 60 | 357 | 1.0 | 1.0 | 0.00 | 0.00 | 0.00 | 81 | 1021.2 |
| 20260901070156 | 60 | 137 | 0.0 | 0.0 | 0.00 | 0.00 | 0.00 | 80 | 1021.4 |
| 20260901065655 | 60 | 137 | 0.0 | 0.0 | 0.00 | 0.00 | 0.00 | 80 | 1021.0 |
| 20260901065150 | 60 | 137 | 0.0 | 0.0 | 0.00 | 0.00 | 0.00 | 80 | 1021.0 |
| 20260901064647 | 60 | 137 | 0.0 | 0.0 | 0.00 | 0.00 | 0.00 | 80 | 1021.1 |
| 20260901064143 | 60 | 137 | 0.0 | 0.0 | 0.00 | 0.00 | 0.00 | 80 | 1021.3 |
| 20260901063641 | 60 | 136 | 0.0 | 0.0 | 0.00 | 0.00 | 0.00 | 81 | 1021.2 |
| 20260901063136 | 60 | 96 | 0.0 | 0.0 | 0.00 | 0.00 | 0.00 | 81 | 1021.3 |
| 20260901062632 | 60 | 128 | 0.0 | 0.0 | 0.00 | 0.00 | 0.00 | 81 | 1021.2 |
| 20260901062127 | 60 | 81 | 0.0 | 0.0 | 0.00 | 0.00 | 0.00 | 81 | 1021.3 |
| 20260901061624 | 60 | 212 | 2.0 | 2.0 | 0.00 | 0.00 | 0.00 | 81 | 1021.2 |
| 20260901061123 | 60 | 96 | 0.0 | 0.0 | 0.00 | 0.00 | 0.00 | 81 | 1021.3 |
| 20260901060623 | 60 | 198 | 2.0 | 3.0 | 0.00 | 0.00 | 0.00 | 81 | 1021.4 |
| 20260901060119 | 60 | 213 | 2.0 | 2.0 | 0.00 | 0.00 | 0.00 | 81 | 1021.5 |
| 20260901055614 | 60 | 115 | 1.0 | 1.0 | 0.00 | 0.00 | 0.00 | 81 | 1021.2 |
| 20260901055110 | 60 | 155 | 0.0 | 0.0 | 0.00 | 0.00 | 0.00 | 82 | 1021.6 |
| 20260901054607 | 60 | 146 | 0.0 | 0.0 | 0.00 | 0.00 | 0.00 | 82 | 1021.4 |
| 20260901054103 | 60 | 92 | 0.0 | 0.0 | 0.00 | 0.00 | 0.00 | 82 | 1021.3 |
| 20260901053559 | 60 | 93 | 0.0 | 0.0 | 0.00 | 0.00 | 0.00 | 82 | 1021.4 |
| 20260901053055 | 60 | 183 | 0.0 | 1.0 | 0.00 | 0.00 | 0.00 | 82 | 1021.8 |
| 20260901052549 | 60 | 114 | 0.0 | 0.0 | 0.00 | 0.00 | 0.00 | 82 | 1021.8 |
| 20260901052049 | 60 | 85 | 0.0 | 0.0 | 0.00 | 0.00 | 0.00 | 82 | 1021.3 |
| 20260901051544 | 60 | 138 | 1.0 | 1.0 | 0.00 | 0.00 | 0.00 | 82 | 1021.5 |
| 20260901051043 | 60 | 225 | 2.0 | 3.0 | 0.00 | 0.00 | 0.00 | 82 | 1021.2 |
| 20260901050544 | 60 | 121 | 0.0 | 0.0 | 0.00 | 0.00 | 0.00 | 82 | 1021.3 |
| 20260901050039 | 60 | 135 | 0.0 | 0.0 | 0.00 | 0.00 | 0.00 | 82 | 1021.3 |
| 20260901045535 | 60 | 91 | 0.0 | 0.0 | 0.00 | 0.00 | 0.00 | 82 | 1021.3 |
| 20260901045034 | 60 | 90 | 0.0 | 0.0 | 0.00 | 0.00 | 0.00 | 82 | 1021.2 |
| 20260901044531 | 59 | 129 | 0.0 | 0.0 | 0.00 | 0.00 | 0.00 | 82 | 1020.9 |
| 20260901044026 | 59 | 130 | 0.0 | 0.0 | 0.00 | 0.00 | 0.00 | 82 | 1021.0 |
| 20260901043522 | 60 | 116 | 0.0 | 0.0 | 0.00 | 0.00 | 0.00 | 82 | 1021.0 |
| 20260901043017 | 59 | 191 | 1.0 | 2.0 | 0.00 | 0.00 | 0.00 | 82 | 1021.1 |
| 20260901042516 | 59 | 132 | 0.0 | 0.0 | 0.00 | 0.00 | 0.00 | 81 | 1021.0 |
| 20260901042012 | 59 | 137 | 0.0 | 0.0 | 0.00 | 0.00 | 0.00 | 81 | 1021.2 |
| 20260901041507 | 59 | 74 | 1.0 | 1.0 | 0.00 | 0.00 | 0.00 | 82 | 1021.0 |
| 20260901041001 | 59 | 245 | 0.0 | 0.0 | 0.00 | 0.00 | 0.00 | 82 | 1020.9 |
| 20260901040456 | 59 | 116 | 0.0 | 0.0 | 0.00 | 0.00 | 0.00 | 81 | 1021.1 |
| 20260901035955 | 60 | 204 | 2.0 | 2.0 | 0.00 | 0.00 | 0.00 | 81 | 1020.8 |
| 20260901035454 | 59 | 206 | 2.0 | 2.0 | 0.00 | 0.00 | 0.00 | 81 | 1020.7 |
| 20260901034952 | 60 | 228 | 0.0 | 1.0 | 0.00 | 0.00 | 0.00 | 82 | 1020.7 |
| 20260901034452 | 60 | 166 | 1.0 | 1.0 | 0.00 | 0.00 | 0.00 | 83 | 1020.8 |
| 20260901033948 | 60 | 117 | 0.0 | 0.0 | 0.00 | 0.00 | 0.00 | 82 | 1020.6 |
| 20260901033446 | 60 | 83 | 0.0 | 0.0 | 0.00 | 0.00 | 0.00 | 81 | 1020.7 |
| 20260901032945 | 60 | 45 | 2.0 | 2.0 | 0.00 | 0.00 | 0.00 | 81 | 1020.7 |
| 20260901032440 | 60 | 303 | 2.0 | 3.0 | 0.00 | 0.00 | 0.00 | 81 | 1020.4 |
| 20260901031935 | 60 | 240 | 2.0 | 3.0 | 0.00 | 0.00 | 0.00 | 81 | 1020.5 |
| 20260901031431 | 60 | 88 | 0.0 | 0.0 | 0.00 | 0.00 | 0.00 | 81 | 1020.4 |
| 20260901030930 | 60 | 207 | 2.0 | 2.0 | 0.00 | 0.00 | 0.00 | 82 | 1020.6 |
| 20260901030426 | 60 | 88 | 1.0 | 1.0 | 0.00 | 0.00 | 0.00 | 82 | 1020.3 |
| 20260901025924 | 60 | 66 | 1.0 | 1.0 | 0.00 | 0.00 | 0.00 | 81 | 1020.6 |
| 20260901025420 | 60 | 149 | 1.0 | 2.0 | 0.00 | 0.00 | 0.00 | 81 | 1020.2 |
| 20260901024919 | 60 | 75 | 0.0 | 1.0 | 0.00 | 0.00 | 0.00 | 81 | 1020.4 |
| 20260901024414 | 60 | 148 | 1.0 | 1.0 | 0.00 | 0.00 | 0.00 | 82 | 1020.5 |
| 20260901023913 | 60 | 121 | 0.0 | 0.0 | 0.00 | 0.00 | 0.00 | 81 | 1020.3 |
| 20260901023407 | 61 | 264 | 2.0 | 3.0 | 0.00 | 0.00 | 0.00 | 81 | 1020.3 |
| 20260901022902 | 60 | 131 | 0.0 | 1.0 | 0.00 | 0.00 | 0.00 | 79 | 1020.2 |
| 20260901022358 | 60 | 143 | 1.0 | 2.0 | 0.00 | 0.00 | 0.00 | 79 | 1020.2 |
| 20260901021853 | 60 | 69 | 1.0 | 2.0 | 0.00 | 0.00 | 0.00 | 79 | 1020.0 |
| 20260901021349 | 61 | 87 | 0.0 | 1.0 | 0.00 | 0.00 | 0.00 | 80 | 1020.1 |
| 20260901020844 | 61 | 223 | 2.0 | 2.0 | 0.00 | 0.00 | 0.00 | 80 | 1020.2 |
| 20260901020339 | 61 | 160 | 1.0 | 2.0 | 0.00 | 0.00 | 0.00 | 79 | 1020.1 |
| 20260901015838 | 61 | 209 | 2.0 | 4.0 | 0.00 | 0.00 | 0.00 | 79 | 1020.0 |
| 20260901015335 | 61 | 239 | 2.0 | 3.0 | 0.00 | 0.00 | 0.00 | 78 | 1020.2 |
| 20260901014834 | 61 | 131 | 1.0 | 2.0 | 0.00 | 0.00 | 0.00 | 79 | 1020.3 |
| 20260901014331 | 61 | 59 | 0.0 | 0.0 | 0.00 | 0.00 | 0.00 | 78 | 1020.1 |
| 20260901013826 | 61 | 288 | 4.0 | 4.0 | 0.00 | 0.00 | 0.00 | 78 | 1020.0 |
| 20260901013321 | 61 | 29 | 2.0 | 3.0 | 0.00 | 0.00 | 0.00 | 77 | 1020.1 |
| 20260901012817 | 62 | 245 | 3.0 | 4.0 | 0.00 | 0.00 | 0.00 | 77 | 1020.4 |
| 20260901012311 | 62 | 337 | 3.0 | 3.0 | 0.00 | 0.00 | 0.00 | 76 | 1020.4 |
| 20260901011808 | 62 | 157 | 2.0 | 2.0 | 0.00 | 0.00 | 0.00 | 75 | 1020.3 |
| 20260901011302 | 63 | 212 | 3.0 | 4.0 | 0.00 | 0.00 | 0.00 | 75 | 1020.2 |
| 20260901010756 | 63 | 122 | 1.0 | 1.0 | 0.00 | 0.00 | 0.00 | 76 | 1020.2 |
| 20260901010250 | 63 | 356 | 4.0 | 6.0 | 0.00 | 0.00 | 0.00 | 76 | 1020.2 |
| 20260901005749 | 63 | 181 | 3.0 | 7.0 | 0.00 | 0.00 | 0.00 | 75 | 1020.2 |
| 20260901005245 | 63 | 110 | 1.0 | 2.0 | 0.00 | 0.00 | 0.00 | 77 | 1020.1 |
| 20260901004744 | 63 | 310 | 5.0 | 7.0 | 0.00 | 0.00 | 0.00 | 75 | 1020.1 |
| 20260901004239 | 63 | 187 | 2.0 | 3.0 | 0.00 | 0.00 | 0.00 | 75 | 1020.2 |
| 20260901003734 | 64 | 261 | 5.0 | 7.0 | 0.00 | 0.00 | 0.00 | 74 | 1020.3 |
| 20260901003233 | 64 | 63 | 2.0 | 3.0 | 0.00 | 0.00 | 0.00 | 76 | 1020.2 |
| 20260901002727 | 64 | 229 | 5.0 | 7.0 | 0.00 | 0.00 | 0.00 | 76 | 1020.4 |
| 20260901002222 | 63 | 20 | 2.0 | 3.0 | 0.00 | 0.00 | 0.00 | 77 | 1020.2 |
| 20260901001717 | 65 | 239 | 4.0 | 6.0 | 0.00 | 0.00 | 0.00 | 75 | 1020.3 |
| 20260901001212 | 64 | 166 | 4.0 | 6.0 | 0.00 | 0.00 | 0.00 | 76 | 1020.1 |
| 20260901000707 | 64 | 194 | 2.0 | 3.0 | 0.00 | 0.00 | 0.00 | 76 | 1020.0 |
| 20260901000203 | 64 | 295 | 4.0 | 4.0 | 0.00 | 0.00 | 0.00 | 74 | 1020.1 |
| 20260831235656 | 65 | 235 | 5.0 | 6.0 | 0.00 | 0.00 | 0.00 | 74 | 1020.3 |
| 20260831235152 | 65 | 240 | 5.0 | 10.0 | 0.00 | 0.00 | 0.00 | 72 | 1020.4 |
| 20260831234651 | 64 | 298 | 2.0 | 3.0 | 0.00 | 0.00 | 0.00 | 73 | 1020.2 |
| 20260831234147 | 66 | 149 | 3.0 | 4.0 | 0.00 | 0.00 | 0.00 | 72 | 1020.3 |
| 20260831233642 | 66 | 64 | 1.0 | 1.0 | 0.00 | 0.00 | 0.00 | 71 | 1020.6 |
| 20260831233137 | 66 | 167 | 3.0 | 3.0 | 0.00 | 0.00 | 0.00 | 72 | 1020.6 |
| 20260831232632 | 66 | 43 | 4.0 | 4.0 | 0.00 | 0.00 | 0.00 | 71 | 1020.5 |
| 20260831232128 | 65 | 59 | 2.0 | 3.0 | 0.00 | 0.00 | 0.00 | 72 | 1020.4 |
| 20260831231624 | 65 | 188 | 6.0 | 8.0 | 0.00 | 0.00 | 0.00 | 71 | 1020.7 |
| 20260831231120 | 66 | 262 | 4.0 | 10.0 | 0.00 | 0.00 | 0.00 | 72 | 1020.4 |
| 20260831230615 | 66 | 208 | 3.0 | 3.0 | 0.00 | 0.00 | 0.00 | 70 | 1020.3 |
| 20260831230110 | 66 | 222 | 6.0 | 8.0 | 0.00 | 0.00 | 0.00 | 70 | 1020.6 |
| 20260831225604 | 66 | 205 | 2.0 | 2.0 | 0.00 | 0.00 | 0.00 | 70 | 1020.5 |
| 20260831225059 | 66 | 36 | 2.0 | 2.0 | 0.00 | 0.00 | 0.00 | 71 | 1020.5 |
| 20260831224554 | 66 | 202 | 2.0 | 2.0 | 0.00 | 0.00 | 0.00 | 71 | 1020.4 |
| 20260831224049 | 67 | 251 | 3.0 | 4.0 | 0.00 | 0.00 | 0.00 | 70 | 1020.7 |
| 20260831223544 | 67 | 135 | 3.0 | 3.0 | 0.00 | 0.00 | 0.00 | 69 | 1020.7 |
| 20260831223040 | 66 | 300 | 2.0 | 4.0 | 0.00 | 0.00 | 0.00 | 71 | 1020.8 |
| 20260831222536 | 65 | 253 | 5.0 | 6.0 | 0.00 | 0.00 | 0.00 | 71 | 1020.6 |
| 20260831222031 | 65 | 326 | 2.0 | 3.0 | 0.00 | 0.00 | 0.00 | 73 | 1020.9 |
| 20260831221527 | 65 | 273 | 2.0 | 3.0 | 0.00 | 0.00 | 0.00 | 74 | 1020.8 |
| 20260831221021 | 64 | 68 | 2.0 | 2.0 | 0.00 | 0.00 | 0.00 | 76 | 1020.9 |
| 20260831220517 | 65 | 186 | 1.0 | 1.0 | 0.00 | 0.00 | 0.00 | 74 | 1021.2 |
| 20260831220012 | 65 | 223 | 2.0 | 2.0 | 0.00 | 0.00 | 0.00 | 74 | 1021.2 |
| 20260831215508 | 65 | 323 | 3.0 | 6.0 | 0.00 | 0.00 | 0.00 | 74 | 1021.3 |
| 20260831215003 | 64 | 65 | 1.0 | 2.0 | 0.00 | 0.00 | 0.00 | 75 | 1021.6 |
| 20260831214501 | 65 | 52 | 2.0 | 3.0 | 0.00 | 0.00 | 0.00 | 75 | 1021.3 |
| 20260831213956 | 64 | 28 | 1.0 | 2.0 | 0.00 | 0.00 | 0.00 | 74 | 1021.2 |
| 20260831213453 | 64 | 120 | 0.0 | 1.0 | 0.00 | 0.00 | 0.00 | 75 | 1021.4 |
| 20260831212952 | 64 | 301 | 5.0 | 7.0 | 0.00 | 0.00 | 0.00 | 75 | 1021.3 |
| 20260831212448 | 64 | 330 | 3.0 | 4.0 | 0.00 | 0.00 | 0.00 | 76 | 1021.4 |
| 20260831211943 | 64 | 1 | 2.0 | 2.0 | 0.00 | 0.00 | 0.00 | 77 | 1021.5 |
| 20260831211438 | 63 | 46 | 2.0 | 3.0 | 0.00 | 0.00 | 0.00 | 78 | 1021.6 |
| 20260831210937 | 64 | 57 | 4.0 | 4.0 | 0.00 | 0.00 | 0.00 | 77 | 1021.8 |
| 20260831210433 | 64 | 186 | 1.0 | 2.0 | 0.00 | 0.00 | 0.00 | 78 | 1021.8 |
| 20260831205929 | 63 | 208 | 4.0 | 4.0 | 0.00 | 0.00 | 0.00 | 78 | 1021.8 |
| 20260831205424 | 63 | 200 | 3.0 | 3.0 | 0.00 | 0.00 | 0.00 | 78 | 1022.0 |
| 20260831204924 | 64 | 208 | 3.0 | 4.0 | 0.00 | 0.00 | 0.00 | 77 | 1021.9 |
| 20260831204423 | 64 | 283 | 2.0 | 2.0 | 0.00 | 0.00 | 0.00 | 77 | 1021.5 |
| 20260831203918 | 63 | 217 | 3.0 | 4.0 | 0.00 | 0.00 | 0.00 | 76 | 1021.9 |
| 20260831203412 | 63 | 90 | 1.0 | 2.0 | 0.00 | 0.00 | 0.00 | 77 | 1021.6 |
| 20260831202911 | 63 | 218 | 2.0 | 4.0 | 0.00 | 0.00 | 0.00 | 77 | 1021.8 |
| 20260831202406 | 63 | 66 | 2.0 | 2.0 | 0.00 | 0.00 | 0.00 | 77 | 1022.0 |
| 20260831201906 | 63 | 179 | 1.0 | 2.0 | 0.00 | 0.00 | 0.00 | 78 | 1021.9 |
| 20260831201404 | 63 | 165 | 2.0 | 2.0 | 0.00 | 0.00 | 0.00 | 78 | 1021.6 |
| 20260831200900 | 63 | 273 | 1.0 | 2.0 | 0.00 | 0.00 | 0.00 | 78 | 1021.9 |
| 20260831200355 | 62 | 198 | 4.0 | 6.0 | 0.00 | 0.00 | 0.00 | 79 | 1022.0 |
| 20260831195850 | 62 | 310 | 3.0 | 3.0 | 0.00 | 0.00 | 0.00 | 80 | 1021.6 |
| 20260831195346 | 62 | 168 | 2.0 | 3.0 | 0.00 | 0.00 | 0.00 | 80 | 1021.8 |
| 20260831194842 | 62 | 243 | 2.0 | 3.0 | 0.00 | 0.00 | 0.00 | 81 | 1021.6 |
| 20260831194337 | 62 | 177 | 2.0 | 4.0 | 0.00 | 0.00 | 0.00 | 81 | 1021.9 |
| 20260831193836 | 62 | 249 | 3.0 | 3.0 | 0.00 | 0.00 | 0.00 | 81 | 1021.9 |
| 20260831193331 | 62 | 180 | 1.0 | 1.0 | 0.00 | 0.00 | 0.00 | 81 | 1021.9 |
| 20260831192826 | 62 | 159 | 2.0 | 2.0 | 0.00 | 0.00 | 0.00 | 81 | 1021.9 |
| 20260831192320 | 62 | 200 | 2.0 | 2.0 | 0.00 | 0.00 | 0.00 | 82 | 1022.1 |
| 20260831191816 | 62 | 224 | 3.0 | 3.0 | 0.00 | 0.00 | 0.00 | 81 | 1022.0 |
| 20260831191312 | 62 | 124 | 1.0 | 2.0 | 0.00 | 0.00 | 0.00 | 82 | 1022.1 |
| 20260831190808 | 62 | 284 | 1.0 | 2.0 | 0.00 | 0.00 | 0.00 | 82 | 1022.1 |
| 20260831190308 | 62 | 159 | 1.0 | 1.0 | 0.00 | 0.00 | 0.00 | 82 | 1022.1 |
| 20260831185807 | 62 | 161 | 2.0 | 2.0 | 0.00 | 0.00 | 0.00 | 82 | 1022.0 |
| 20260831185306 | 61 | 211 | 3.0 | 3.0 | 0.00 | 0.00 | 0.00 | 82 | 1021.9 |
| 20260831184802 | 61 | 247 | 3.0 | 3.0 | 0.00 | 0.00 | 0.00 | 82 | 1022.0 |
| 20260831184252 | 62 | 151 | 2.0 | 4.0 | 0.00 | 0.00 | 0.00 | 82 | 1022.1 |
| 20260831183748 | 62 | 256 | 3.0 | 4.0 | 0.00 | 0.00 | 0.00 | 82 | 1022.2 |
| 20260831183247 | 62 | 145 | 2.0 | 3.0 | 0.00 | 0.00 | 0.00 | 83 | 1022.3 |
| 20260831182746 | 62 | 163 | 1.0 | 1.0 | 0.00 | 0.00 | 0.00 | 83 | 1022.1 |
| 20260831182241 | 61 | 153 | 1.0 | 1.0 | 0.00 | 0.00 | 0.00 | 84 | 1021.9 |
| 20260831181736 | 62 | 175 | 2.0 | 3.0 | 0.00 | 0.00 | 0.00 | 84 | 1022.2 |
| 20260831181231 | 61 | 196 | 3.0 | 4.0 | 0.00 | 0.00 | 0.00 | 86 | 1022.0 |
| 20260831180731 | 60 | 197 | 4.0 | 6.0 | 0.00 | 0.00 | 0.00 | 87 | 1022.1 |
| 20260831180226 | 60 | 229 | 1.0 | 2.0 | 0.00 | 0.00 | 0.00 | 88 | 1022.0 |
| 20260831175725 | 60 | 183 | 2.0 | 3.0 | 0.00 | 0.00 | 0.00 | 89 | 1021.8 |
| 20260831175222 | 59 | 128 | 0.0 | 0.0 | 0.00 | 0.00 | 0.00 | 89 | 1022.0 |
| 20260831174723 | 59 | 220 | 2.0 | 4.0 | 0.00 | 0.00 | 0.00 | 89 | 1022.0 |
| 20260831174218 | 59 | 184 | 1.0 | 2.0 | 0.00 | 0.00 | 0.00 | 89 | 1022.0 |
| 20260831173717 | 60 | 175 | 2.0 | 2.0 | 0.00 | 0.00 | 0.00 | 88 | 1022.3 |
| 20260831173212 | 60 | 123 | 0.0 | 0.0 | 0.00 | 0.00 | 0.00 | 88 | 1022.1 |
| 20260831172706 | 60 | 142 | 1.0 | 1.0 | 0.00 | 0.00 | 0.00 | 88 | 1022.1 |
| 20260831172202 | 60 | 132 | 0.0 | 1.0 | 0.00 | 0.00 | 0.00 | 88 | 1022.1 |
| 20260831171657 | 60 | 101 | 1.0 | 2.0 | 0.00 | 0.00 | 0.00 | 87 | 1022.0 |
| 20260831171154 | 60 | 103 | 0.0 | 0.0 | 0.00 | 0.00 | 0.00 | 88 | 1021.9 |
| 20260831170650 | 59 | 110 | 1.0 | 2.0 | 0.00 | 0.00 | 0.00 | 88 | 1021.8 |
| 20260831170147 | 59 | 181 | 0.0 | 1.0 | 0.00 | 0.00 | 0.00 | 88 | 1021.9 |
| 20260831165643 | 59 | 162 | 2.0 | 3.0 | 0.00 | 0.00 | 0.00 | 88 | 1021.9 |
| 20260831165139 | 59 | 166 | 2.0 | 3.0 | 0.00 | 0.00 | 0.00 | 88 | 1021.6 |
| 20260831164635 | 59 | 185 | 0.0 | 0.0 | 0.00 | 0.00 | 0.00 | 89 | 1021.6 |
| 20260831164130 | 59 | 124 | 0.0 | 1.0 | 0.00 | 0.00 | 0.00 | 89 | 1021.4 |
| 20260831163625 | 59 | 124 | 0.0 | 1.0 | 0.00 | 0.00 | 0.00 | 89 | 1021.6 |
| 20260831163121 | 59 | 177 | 1.0 | 2.0 | 0.00 | 0.00 | 0.00 | 88 | 1021.5 |
| 20260831162620 | 59 | 132 | 1.0 | 1.0 | 0.00 | 0.00 | 0.00 | 88 | 1021.5 |
| 20260831162118 | 59 | 151 | 1.0 | 1.0 | 0.00 | 0.00 | 0.00 | 88 | 1021.6 |